When you browse on this site, cookies collect data to enhance your experience and personalize the content and advertising you see.
Visit our Privacy Policy to learn more. By continuing to use the site, you agree to this use of cookies and data.
  • In Romania
  • List of Countries
  • For 7 days
  • Water Temperature
  • Weather Map
  • Weather Widgets
  • user-avatar
    Login

    Hourly Weather Szombathely

    Today, 11 December, Wednesday

    Time Temperature Precipitation Wind Pressure Humidity
    00:00 0°C° 0 mm 3 mps 749 mmHg 82%
    01:00 -1°C° 0 mm 3 mps 749 mmHg 80%
    02:00 -1°C° 0 mm 3 mps 748 mmHg 81%
    03:00 -1°C° 0 mm 3 mps 748 mmHg 81%
    04:00 -1°C° 0 mm 2 mps 747 mmHg 82%
    05:00 -1°C° 0 mm 2 mps 747 mmHg 83%
    06:00 0°C° 0 mm 1 mps 747 mmHg 83%
    07:00 0°C° 0 mm 1 mps 747 mmHg 82%
    08:00 +1°C° 0 mm 1 mps 747 mmHg 77%
    09:00 +2°C° 0 mm 1 mps 746 mmHg 72%
    10:00 +1°C° 0 mm 0 mps 746 mmHg 67%
    11:00 +3°C° 0 mm 1 mps 745 mmHg 62%
    12:00 +4°C° 0 mm 1 mps 744 mmHg 58%
    13:00 +3°C° 0 mm 2 mps 744 mmHg 53%
    14:00 +2°C° 0 mm 2 mps 743 mmHg 58%
    15:00 +1°C° 0 mm 2 mps 742 mmHg 63%
    16:00 -1°C° 0 mm 2 mps 741 mmHg 68%
    17:00 -1°C° 0 mm 2 mps 741 mmHg 70%
    18:00 -2°C° 0 mm 2 mps 741 mmHg 71%
    19:00 -2°C° 0 mm 3 mps 741 mmHg 73%
    20:00 -2°C° 0 mm 2 mps 741 mmHg 74%
    21:00 -2°C° 0 mm 2 mps 740 mmHg 74%
    22:00 -2°C° 0 mm 2 mps 740 mmHg 75%
    23:00 -2°C° 0 mm 2 mps 739 mmHg 76%

    Tomorrow, 12 December, Thursday

    Time Temperature Precipitation Wind Pressure Humidity
    00:00 -2°C° 0 mm 2 mps 739 mmHg 77%
    01:00 -2°C° 0 mm 2 mps 739 mmHg 78%
    02:00 0°C° 0 mm 1 mps 738 mmHg 80%
    03:00 0°C° 0 mm 1 mps 737 mmHg 81%
    04:00 0°C° 0 mm 1 mps 737 mmHg 83%
    05:00 0°C° 0 mm 1 mps 737 mmHg 83%
    06:00 +1°C° 0 mm 1 mps 737 mmHg 83%
    07:00 +1°C° 0 mm 1 mps 737 mmHg 83%
    08:00 +1°C° 0 mm 1 mps 737 mmHg 83%
    09:00 +2°C° 0 mm 1 mps 737 mmHg 83%
    10:00 +2°C° 0 mm 1 mps 737 mmHg 84%
    11:00 +2°C° 0.1 mm 1 mps 737 mmHg 86%
    12:00 +3°C° 0.1 mm 1 mps 736 mmHg 88%
    13:00 +2°C° 0.1 mm 2 mps 736 mmHg 90%
    14:00 +2°C° 0.5 mm 2 mps 736 mmHg 93%
    15:00 +1°C° 0.5 mm 2 mps 735 mmHg 95%
    16:00 +1°C° 0.5 mm 2 mps 735 mmHg 98%
    17:00 +1°C° 0.3 mm 2 mps 735 mmHg 98%
    18:00 +1°C° 0.3 mm 2 mps 735 mmHg 98%
    19:00 +2°C° 0.3 mm 2 mps 735 mmHg 98%
    20:00 +2°C° 0.1 mm 2 mps 734 mmHg 98%
    21:00 +2°C° 0.1 mm 1 mps 734 mmHg 98%
    22:00 +2°C° 0.1 mm 1 mps 733 mmHg 98%
    23:00 +2°C° 0 mm 1 mps 733 mmHg 98%

    Day after tomorrow, 13 December, Friday

    Time Temperature Precipitation Wind Pressure Humidity
    00:00 +2°C° 0 mm 1 mps 732 mmHg 98%
    01:00 +2°C° 0 mm 1 mps 732 mmHg 98%
    02:00 +2°C° 0 mm 1 mps 731 mmHg 98%
    03:00 +1°C° 0 mm 2 mps 730 mmHg 97%
    04:00 +1°C° 0 mm 2 mps 729 mmHg 97%
    05:00 0°C° 0 mm 3 mps 729 mmHg 96%
    06:00 -1°C° 0 mm 4 mps 728 mmHg 95%
    07:00 -1°C° 0 mm 4 mps 728 mmHg 95%
    08:00 -1°C° 0 mm 5 mps 727 mmHg 92%
    09:00 -2°C° 0 mm 6 mps 726 mmHg 88%
    10:00 -1°C° 0 mm 6 mps 725 mmHg 85%
    11:00 -1°C° 0 mm 7 mps 725 mmHg 83%
    12:00 0°C° 0 mm 7 mps 724 mmHg 81%
    13:00 +2°C° 0 mm 7 mps 723 mmHg 80%
    14:00 +1°C° 0 mm 6 mps 723 mmHg 82%
    15:00 +1°C° 0 mm 5 mps 723 mmHg 84%
    16:00 0°C° 0 mm 4 mps 723 mmHg 86%
    17:00 +1°C° 0 mm 3 mps 724 mmHg 88%
    18:00 +2°C° 0 mm 2 mps 724 mmHg 90%
    19:00 +2°C° 0 mm 1 mps 725 mmHg 91%
    20:00 +2°C° 0.1 mm 1 mps 726 mmHg 92%
    21:00 +2°C° 0.1 mm 1 mps 727 mmHg 92%
    22:00 +2°C° 0.1 mm 1 mps 727 mmHg 92%
    23:00 +1°C° 0 mm 2 mps 728 mmHg 92%

    14 December, Saturday

    Time Temperature Precipitation Wind Pressure Humidity
    00:00 +1°C° 0 mm 2 mps 728 mmHg 93%
    01:00 +1°C° 0 mm 2 mps 729 mmHg 94%
    02:00 +1°C° 0 mm 2 mps 730 mmHg 91%
    03:00 +2°C° 0 mm 2 mps 730 mmHg 87%
    04:00 +1°C° 0 mm 3 mps 731 mmHg 84%
    05:00 +2°C° 0 mm 2 mps 732 mmHg 84%
    06:00 +2°C° 0 mm 2 mps 732 mmHg 84%
    07:00 +2°C° 0 mm 1 mps 733 mmHg 85%
    08:00 +2°C° 0 mm 2 mps 734 mmHg 82%
    09:00 +3°C° 0 mm 2 mps 734 mmHg 80%
    10:00 +3°C° 0 mm 2 mps 735 mmHg 78%
    11:00 +3°C° 0 mm 3 mps 735 mmHg 76%
    12:00 +4°C° 0 mm 4 mps 735 mmHg 74%
    13:00 +5°C° 0 mm 4 mps 735 mmHg 72%
    14:00 +4°C° 0 mm 4 mps 736 mmHg 75%
    15:00 +3°C° 0 mm 4 mps 736 mmHg 78%
    16:00 +1°C° 0 mm 4 mps 737 mmHg 81%
    17:00 +1°C° 0 mm 4 mps 737 mmHg 81%
    18:00 +1°C° 0 mm 4 mps 738 mmHg 81%
    19:00 +1°C° 0 mm 4 mps 738 mmHg 81%
    20:00 +2°C° 0 mm 3 mps 738 mmHg 81%
    21:00 +2°C° 0 mm 3 mps 739 mmHg 81%
    22:00 +2°C° 0 mm 3 mps 739 mmHg 81%
    23:00 +1°C° 0 mm 3 mps 739 mmHg 81%

    15 December, Sunday

    Time Temperature Precipitation Wind Pressure Humidity
    00:00 +1°C° 0 mm 3 mps 739 mmHg 81%
    01:00 +1°C° 0 mm 3 mps 739 mmHg 81%
    02:00 +1°C° 0 mm 3 mps 739 mmHg 81%
    03:00 +2°C° 0 mm 2 mps 739 mmHg 80%
    04:00 +2°C° 0 mm 2 mps 740 mmHg 80%
    05:00 +1°C° 0 mm 2 mps 740 mmHg 81%
    06:00 +1°C° 0 mm 2 mps 740 mmHg 83%
    07:00 +1°C° 0 mm 2 mps 740 mmHg 84%
    08:00 +2°C° 0 mm 2 mps 740 mmHg 81%
    09:00 +1°C° 0 mm 3 mps 741 mmHg 79%
    10:00 +2°C° 0 mm 3 mps 741 mmHg 76%
    11:00 +3°C° 0 mm 3 mps 741 mmHg 75%
    12:00 +3°C° 0 mm 3 mps 741 mmHg 73%
    13:00 +4°C° 0 mm 3 mps 741 mmHg 72%
    14:00 +3°C° 0 mm 3 mps 741 mmHg 74%
    15:00 +4°C° 0 mm 2 mps 741 mmHg 77%
    16:00 +3°C° 0 mm 2 mps 741 mmHg 80%
    17:00 +3°C° 0 mm 2 mps 742 mmHg 80%
    18:00 +3°C° 0 mm 2 mps 742 mmHg 80%
    19:00 +3°C° 0 mm 2 mps 743 mmHg 80%
    20:00 +3°C° 0 mm 2 mps 743 mmHg 79%
    21:00 +4°C° 0 mm 1 mps 744 mmHg 78%
    22:00 +4°C° 0 mm 1 mps 745 mmHg 77%
    23:00 +4°C° 0 mm 1 mps 745 mmHg 76%

    16 December, Monday

    Time Temperature Precipitation Wind Pressure Humidity
    00:00 +4°C° 0 mm 1 mps 745 mmHg 75%
    01:00 +4°C° 0 mm 1 mps 746 mmHg 74%
    02:00 +5°C° 0 mm 1 mps 746 mmHg 75%
    03:00 +5°C° 0 mm 1 mps 746 mmHg 76%
    04:00 +5°C° 0 mm 1 mps 746 mmHg 76%
    05:00 +5°C° 0 mm 1 mps 746 mmHg 78%
    06:00 +5°C° 0 mm 1 mps 746 mmHg 79%
    07:00 +4°C° 0 mm 2 mps 746 mmHg 81%
    08:00 +4°C° 0 mm 2 mps 746 mmHg 81%
    09:00 +3°C° 0 mm 3 mps 745 mmHg 81%
    10:00 +4°C° 0 mm 3 mps 745 mmHg 80%
    11:00 +5°C° 0 mm 4 mps 745 mmHg 80%
    12:00 +6°C° 0 mm 5 mps 744 mmHg 80%
    13:00 +7°C° 0 mm 5 mps 744 mmHg 80%
    14:00 +7°C° 0 mm 5 mps 743 mmHg 81%
    15:00 +6°C° 0 mm 4 mps 743 mmHg 83%
    16:00 +6°C° 0 mm 4 mps 743 mmHg 85%
    17:00 +6°C° 0 mm 4 mps 743 mmHg 85%
    18:00 +5°C° 0 mm 4 mps 743 mmHg 86%
    19:00 +5°C° 0 mm 4 mps 742 mmHg 86%
    20:00 +5°C° 0 mm 4 mps 742 mmHg 86%
    21:00 +5°C° 0 mm 4 mps 742 mmHg 86%
    22:00 +5°C° 0 mm 5 mps 742 mmHg 86%
    23:00 +6°C° 0 mm 5 mps 741 mmHg 85%
    Show more